Back to catalog

STARLINK-30131

AliveCommunicationsVLEO
NORAD 56833·PAYLOAD·🇺🇸 United States

Launched Jun 4, 2023 from Cape Canaveral Space Force Station

Loading…

Next Passes (next 24 hours)

TLE

FreshSource: CelesTrak SupGP

Epoch: Sep 15, 2026, 01:37 UTC

1 56833C 23079L   26258.06784722  .00049191  00000+0  18741-2 0  2589
2 56833  43.0078  97.4484 0002840 255.9197 324.3095 15.25885555    13

Track STARLINK-30131 in real time with AllMySat

Download on the App Store